Location: Taukkyan
(23.1052°N, 94.0030°E)
Time: 23:16:33
(UTC+00:00)

ERS-2 - Pass Details

Date: 06 July 2020
Orbit: 493 x 498 km, 98.5° (Epoch: 05 August)

Event Time Altitude Azimuth Distance (km) Brightness Sun altitude
Exits shadow 21:00:53 23° 121° (ESE) 1,097 4.0 -24.7°
Maximum altitude 21:02:29 34° 75° (ENE) 840 3.7 -24.4°
Drops below altitude 10° 21:05:47 10° 9° (N) 1,693 5.4 -23.8°
Sets 21:07:59 0° 0° (N) 2,577 6.3 -23.5°
